Powrót do katalogu

ATLAS 5 CENTAUR DEB

LostHEO
NORAD 46868·DEBRIS·🇺🇸 United States

Wystrzelony Oct 17, 2018 z Cape Canaveral Space Force Station

Loading…

Następne Przeloty (najbliższe 24 godziny)

TLE

NieaktualneSource: Space-Track

Epoka: Jan 29, 2024, 12:26 UTC

1 46868U 18079DZ  24029.51862528 -.00000119  00000-0  00000+0 0  9992
2 46868  13.1852  87.4412 4325151 228.2444  85.7164  2.01171424 23791

Śledź ATLAS 5 CENTAUR DEB w czasie rzeczywistym z AllMySat

Download on the App Store